Location: Newark
(34.9471°N, 136.1778°E)
Time: 03:50:33
(UTC+00:00)

LilacSat-2 - Pass Details

Date: 24 February 2020
Orbit: 514 x 534 km, 97.5° (Epoch: 04 April)

Event Time Altitude Azimuth Distance (km) Brightness Sun altitude
Rises 20:05:04 0° 25° (NNE) 2,651 ? -18.4°
Reaches altitude 10° 20:07:24 10° 37° (NE) 1,762 ? -17.9°
Maximum altitude 20:10:40 27° 97° (E) 1,026 ? -17.2°
Drops below altitude 10° 20:13:56 10° 156° (SSE) 1,760 ? -16.5°
Sets 20:16:16 0° 169° (S) 2,648 ? -16.1°
